Weather Roundup
Issued by NWS Chicago, IL

Home | Current Version | Previous Version | Graphics & Text | Print | Product List | Glossary On
Versions: 1 2 3 4 5 6 7 8 9 10 11 12 13 14 15 16 17 18 19 20 21 22 23 24 25 26 27 28 29 30 31 32 33 34 35 36 37 38 39 40 41 42 43 44 45 46 47 48 49 50
000
NZUS59 KLOT 030503
HRRLOT

CHICAGO AREA WEATHER ROUNDUP
NATIONAL WEATHER SERVICE CHICAGO/ROMEOVILLE IL
1200 AM CDT TUE MAY 03 2016

NOTE: "FAIR" INDICATES FEW OR NO CLOUDS BELOW 12,000 FEET WITH NO
SIGNIFICANT WEATHER AND/OR OBSTRUCTIONS TO VISIBILITY.

* THESE STATIONS ARE NOT UNDER NWS QUALITY CONTROL. THEY ALSO MAY NOT
  REPORT WEATHER SUCH AS PRECIPITATION OR FOG.

ILZ005-006-012>014-019>023-030600-
NORTHEAST ILLINOIS

CITY           SKY/WX    TMP DP  RH WIND       PRES   REMARKS
OHARE          CLEAR     44  35  70 NW3       29.99F
MIDWAY         PTCLDY    48  34  58 CALM      30.00F
AURORA         PTCLDY    40  37  89 W3        30.01F
LANSING*       CLEAR     44  38  78 CALM      30.00F
WAUKEGAN       CLEAR     39  36  89 NW3       29.99F
DUPAGE AIRPORT CLEAR     41  32  70 CALM      30.00F
WHEELING       CLEAR     43  36  76 CALM      30.01F
MORRIS*        PTCLDY    44  40  84 CALM      30.00S
$$

WIZ051-052-058>065-066-070>072-030600-
SOUTHEAST WISCONSIN

CITY           SKY/WX    TMP DP  RH WIND       PRES   REMARKS
MILWAUKEE      PTCLDY    44  34  67 CALM      30.00F
KENOSHA*       CLEAR     40  34  79 W5        30.00F
RACINE*        CLEAR     40  34  79 CALM      30.01F
BURLINGTON     CLEAR     37  35  91 CALM      30.01F
$$

INZ001>003-010>013-019-020-030600-
NORTHWEST INDIANA

CITY           SKY/WX    TMP DP  RH WIND       PRES   REMARKS
GARY*          NOT AVBL
MICHIGAN CITY* NOT AVBL
RENSSELAER*    NOT AVBL
VALPARAISO     CLOUDY    48  39  71 CALM      30.00F
$$

LMZ740>746-030600-
SOUTHERN LAKE MICHIGAN

STATION/POSITION TIME  SKY/WX   TEMP WIND        PRES    VSBY
                                AIR  DIR/SP/G
                 (UTC)          (F)  (DEG/KT/KT) (MB)    (MI)
HARRISON CRIB    0400            47  330/  6/  6   N/A
BURNHAM HARBOR   0500            47   CALM  /  3   N/A
CALUMET HARBOR   0400            45  330/  2/  3 1015.7F
BURNS HARBOR     0400            46  340/  4/  6 1016.6F
MICHIGAN CITY    0400            45  250/  2/  2   N/A
$$

ABBREVIATIONS USED IN REMARKS
   TC - TEMPERATURE IN CELSIUS
  WCI - WIND CHILL INDEX
   HX - HEAT INDEX
  VSB - VISIBILITY
$$



USA.gov is the U.S. government's official web portal to all federal, state and local government web resources and services.